Location: Caltech
(34.1382°N, 118.1253°W)
Time: 16:32:12
(UTC-07:00)

PCSat - Visible Passes

Search period start: 29 August 2015 00:00
Search period end: 08 September 2015 00:00
Orbit: 786 x 795 km, 67.1° (Epoch: 29 August)

Date Brightness Start Highest point End Pass type
(mag) Time Alt. Az. Time Alt. Az. Time Alt. Az.
29 Aug 12.5 01:56:10 10° NE 01:56:10 10° NE 01:56:17 10° NE visible
29 Aug 11.2 03:36:54 24° NNW 03:36:54 24° NNW 03:39:42 10° N visible
30 Aug 11.5 03:07:05 23° N 03:07:05 23° N 03:09:13 10° NNE visible
31 Aug 12.0 02:37:14 18° NNE 02:37:14 18° NNE 02:38:37 10° NNE visible
01 Sep 12.4 02:07:21 13° NNE 02:07:21 13° NNE 02:07:56 10° NNE visible
01 Sep 12.0 03:48:05 11° NNW 03:48:05 11° NNW 03:48:31 10° NNW visible
02 Sep 12.1 03:18:11 12° NNW 03:18:11 12° NNW 03:18:55 10° NNW visible
03 Sep 12.2 02:48:15 12° N 02:48:15 12° N 02:48:48 10° N visible
04 Sep 12.5 02:18:18 11° N 02:18:18 11° N 02:18:29 10° N visible
